Content
SEND FEEDBACK

Daily
Averages
Monthly
Summary
United States of America

TAMUNING, GUAM


Home > North America > United States > Guam
Elevation: 76 meters     Latitude: 13 29N     Longitude: 144 47E

WEATHER
 
SELECT A DAY
Number of Records: 337,293;   Date Range: 1/1/95 - 4/15/14
 
SHARE

PRINT THIS DATA

[ ← Previous Day ]
WEATHER ALMANAC - 21 JANUARY, 2013
[ Next Day → ]
[ °F ]   °C
Weather ElementAverageHighLow
Temperature23.9 °C25.1 °C (2:55 pm)23 °C (6:16 am)
Dewpoint22.7 °C24 °C (12:52 am)20.9 °C (5:55 pm)
Humidity92.4 %100 % (1:17 am)78 % (4:55 pm)
Barometer1012.2 hPa1013.9 hPa (9:14 am)1010.5 hPa (3:43 am)
Wind Speed42.8 km/h55.5 km/h (11:59 am)
Wind Gust68.6 km/h (9:43 am)
Weather ElementAverage
Visibility9 km
Wind DirectionNE (39.7 °)

Weather ElementTotal
Precipitation21.08 mm
Cooling Degree Days5.7 (Base 18.3)
Growing Degree Days14.1 (Base 10)
Averaged from 202 records on 21 January, 2013
WEATHER CONDITIONS BREAKOUT
WIND DIRECTION BREAKOUT
WEATHER BY HOUR - 21 JANUARY, 2013
[ °F ]   °C
Local TimeTemperatureDewpointHumidityBarometerVisibilityWind DirectionWind SpeedGust SpeedPrecipitationEventsConditions
12:05 AM24 °C23 °C94 %1012.2 hPa4.8 kmNE (50°)48.1 km/h62.9 km/hRainLight Rain
12:14 AM24 °C23 °C94 %1012.2 hPa11.3 kmNE (40°)38.9 km/h59.2 km/hLight Drizzle
12:18 AM24 °C23 °C94 %1012.2 hPa12.9 kmNE (40°)40.7 km/h50.1 km/hOvercast
12:25 AM24 °C23 °C94 %1012.2 hPa16.1 kmNE (50°)38.9 km/h50.1 km/hOvercast
12:32 AM24 °C23 °C94 %1012.2 hPa16.1 kmNE (50°)29.6 km/hOvercast
12:39 AM24 °C23 °C94 %1011.9 hPa16.1 kmNE (50°)38.9 km/hOvercast
12:52 AM25 °C24 °C94 %1011.9 hPa16.1 kmNE (40°)37 km/h48.1 km/hOvercast
12:55 AM24.7 °C23.8 °C95 %1011.9 hPa14.5 kmNE (40°)35.2 km/h48.1 km/h1.52 mmMostly Cloudy
12:56 AM25 °C24 °C94 %1011.9 hPa11.3 kmNE (40°)40.7 km/h51.8 km/hRainLight Rain
1:02 AM25 °C24 °C94 %1011.9 hPa8 kmNE (40°)37 km/h51.8 km/hRainLight Rain
1:03 AM25 °C24 °C94 %1011.9 hPa8 kmNE (40°)33.3 km/h51.8 km/hRainLight Rain
1:04 AM25 °C24 °C94 %1011.9 hPa8 kmNE (40°)35.2 km/h51.8 km/hRainLight Rain
1:09 AM25 °C24 °C94 %1011.9 hPa12.9 kmNE (50°)35.2 km/h46.3 km/hRainRain
1:17 AM24 °C24 °C100 %1011.9 hPa6.4 kmNE (40°)46.3 km/h55.5 km/hRainRain
1:30 AM24 °C23 °C94 %1011.5 hPa12.9 kmNE (40°)44.4 km/h53.8 km/hOvercast
1:32 AM24 °C23 °C94 %1011.5 hPa12.9 kmNE (50°)44.4 km/hOvercast
1:40 AM24 °C23 °C94 %1011.5 hPa14.5 kmNNE (30°)37 km/hOvercast
1:41 AM24 °C23 °C94 %1011.5 hPa14.5 kmNNE (30°)38.9 km/hLight Drizzle
1:49 AM24 °C23 °C94 %1011.5 hPa14.5 kmNE (40°)38.9 km/h46.3 km/hLight Drizzle
1:50 AM24 °C23 °C94 %1011.5 hPa16.1 kmNE (40°)40.7 km/hOvercast
1:55 AM24.3 °C23.5 °C95 %1011.2 hPa16.1 kmNNE (30°)37 km/h50.1 km/h1.02 mmOvercast
1:59 AM24 °C24 °C100 %1011.2 hPa8 kmNE (50°)42.6 km/h50.1 km/hRainRain
2:01 AM24 °C24 °C100 %1011.2 hPa4.8 kmNE (40°)44.4 km/h55.5 km/hRainRain
2:03 AM24 °C23 °C94 %1011.2 hPa4 kmNE (40°)42.6 km/h55.5 km/hRainHeavy Rain
2:05 AM24 °C23 °C94 %1011.2 hPa3.2 kmNE (50°)37 km/h55.5 km/hRainHeavy Rain
2:08 AM24 °C23 °C94 %1011.2 hPa3.2 kmNE (40°)38.9 km/h55.5 km/hRainLight Rain
2:09 AM24 °C23 °C94 %1011.2 hPa4 kmNE (40°)37 km/h55.5 km/hRainLight Rain
2:10 AM24 °C23 °C94 %1011.2 hPa4.8 kmNE (40°)37 km/h55.5 km/hRainLight Rain
2:16 AM24 °C23 °C94 %1011.2 hPa11.3 kmNE (40°)38.9 km/hRainLight Rain
2:17 AM24 °C23 °C94 %1011.2 hPa11.3 kmNE (40°)37 km/hOvercast
2:24 AM24 °C23 °C94 %1010.8 hPa16.1 kmNE (40°)38.9 km/h46.3 km/hOvercast
2:25 AM24 °C23 °C94 %1010.8 hPa14.5 kmNE (40°)38.9 km/h46.3 km/hOvercast
2:28 AM24 °C23 °C94 %1010.8 hPa11.3 kmNE (40°)35.2 km/h46.3 km/hRainLight Rain
2:32 AM24 °C23 °C94 %1011.2 hPa4 kmNE (50°)50.1 km/h62.9 km/hRainRain
2:33 AM24 °C23 °C94 %1010.8 hPa3.2 kmNE (50°)48.1 km/h62.9 km/hRainHeavy Rain
2:35 AM24 °C23 °C94 %1010.8 hPa2.9 kmNE (50°)38.9 km/h62.9 km/hRainHeavy Rain
2:38 AM24 °C23 °C94 %1010.8 hPa2.4 kmNE (50°)38.9 km/h62.9 km/hRainHeavy Rain
2:42 AM24 °C23 °C94 %1010.8 hPa2.9 kmNE (50°)38.9 km/h59.2 km/hRainHeavy Rain
2:43 AM24 °C23 °C94 %1010.8 hPa2.9 kmNE (50°)37 km/h51.8 km/hRainHeavy Rain
2:44 AM24 °C23 °C94 %1010.8 hPa3.2 kmNE (50°)35.2 km/h51.8 km/hRainRain
2:47 AM24 °C23 °C94 %1010.8 hPa3.2 kmNE (40°)42.6 km/h51.8 km/hRainLight Rain
2:51 AM24 °C23 °C94 %1010.8 hPa4 kmNE (40°)38.9 km/h51.8 km/hRainHeavy Rain
2:52 AM24 °C23 °C94 %1010.8 hPa4 kmNE (40°)38.9 km/h51.8 km/hRainHeavy Rain
2:55 AM24 °C23.4 °C96 %1010.8 hPa4 kmNE (40°)44.4 km/h55.5 km/h6.1 mmRainLight Rain
2:57 AM24 °C23 °C94 %1010.8 hPa4.8 kmNE (40°)46.3 km/h55.5 km/hRainLight Rain
3:05 AM24 °C23 °C94 %1010.8 hPa4.8 kmNE (40°)46.3 km/h59.2 km/hRainRain
3:07 AM24 °C23 °C94 %1010.8 hPa4.8 kmNE (40°)46.3 km/h59.2 km/hRainHeavy Rain
3:08 AM24 °C23 °C94 %1010.8 hPa4 kmNE (40°)48.1 km/h59.2 km/hRainLight Rain
3:10 AM24 °C23 °C94 %1010.8 hPa4 kmNE (40°)42.6 km/h59.2 km/hRainLight Rain
3:12 AM24 °C23 °C94 %1010.8 hPa4.8 kmNE (40°)42.6 km/h59.2 km/hRainLight Rain
3:15 AM24 °C23 °C94 %1010.8 hPa6.4 kmNE (40°)40.7 km/h51.8 km/hOvercast
3:16 AM24 °C23 °C94 %1010.8 hPa6.4 kmNE (40°)38.9 km/h51.8 km/hRainLight Rain
3:18 AM24 °C23 °C94 %1010.8 hPa6.4 kmNE (40°)44.4 km/h51.8 km/hRainLight Rain
3:19 AM24 °C23 °C94 %1010.8 hPa6.4 kmNE (40°)50.1 km/h59.2 km/hOvercast
3:27 AM24 °C23 °C94 %1010.8 hPa4.8 kmNE (40°)38.9 km/h64.9 km/hRainLight Rain
3:28 AM24 °C23 °C94 %1010.8 hPa4.8 kmNE (40°)38.9 km/h64.9 km/hRainLight Rain
3:43 AM24 °C23 °C94 %1010.5 hPa16.1 kmNE (50°)40.7 km/h53.8 km/hOvercast
3:44 AM24 °C23 °C94 %1010.5 hPa16.1 kmNE (50°)44.4 km/h59.2 km/hOvercast
3:48 AM24 °C23 °C94 %1010.5 hPa8 kmNE (40°)46.3 km/h64.9 km/hLight Drizzle
3:53 AM24 °C23 °C94 %1010.5 hPa6.4 kmNE (40°)46.3 km/h64.9 km/hLight Drizzle
3:55 AM23.9 °C23.2 °C96 %1010.5 hPa6.4 kmNE (50°)42.6 km/h64.9 km/h1.52 mmLight Drizzle
3:56 AM24 °C23 °C94 %1010.5 hPa6.4 kmNE (50°)40.7 km/h64.9 km/hOvercast
3:57 AM24 °C23 °C94 %1010.5 hPa6.4 kmNE (40°)44.4 km/h64.9 km/hRainLight Rain
3:58 AM24 °C23 °C94 %1010.5 hPa6.4 kmNE (40°)42.6 km/h64.9 km/hOvercast
4:00 AM24 °C23 °C94 %1010.5 hPa4.8 kmNE (40°)46.3 km/h64.9 km/hRainLight Rain
4:02 AM24 °C23 °C94 %1010.5 hPa4 kmNE (40°)48.1 km/h64.9 km/hRainLight Rain
4:08 AM24 °C23 °C94 %1010.5 hPa4.8 kmNE (40°)44.4 km/h57.5 km/hRainLight Rain
4:20 AM24 °C23 °C94 %1010.8 hPa12.9 kmNNE (30°)35.2 km/h51.8 km/hOvercast
4:21 AM24 °C23 °C94 %1010.8 hPa11.3 kmNNE (30°)35.2 km/h51.8 km/hRainLight Rain
4:27 AM24 °C23 °C94 %1010.8 hPa4.8 kmNE (40°)40.7 km/h64.9 km/hRainHeavy Rain
4:55 AM23.9 °C23.3 °C96 %1010.8 hPa8 kmNE (40°)35.2 km/h46.3 km/h2.79 mmRainLight Rain
5:00 AM24 °C23 °C94 %1010.8 hPa6.4 kmNNE (30°)40.7 km/h51.8 km/hRainLight Rain
5:03 AM24 °C23 °C94 %1011.2 hPa4.8 kmNE (40°)44.4 km/h51.8 km/hOvercast
5:04 AM24 °C23 °C94 %1011.2 hPa4.8 kmNE (40°)40.7 km/h51.8 km/hRainLight Rain
5:08 AM24 °C23 °C94 %1011.2 hPa4 kmNNE (30°)44.4 km/h51.8 km/hRainRain
5:09 AM24 °C23 °C94 %1011.2 hPa4 kmNE (40°)46.3 km/h55.5 km/hRainRain
5:16 AM24 °C23 °C94 %1011.2 hPa4 kmNE (40°)44.4 km/h55.5 km/hRainLight Rain
5:18 AM24 °C23 °C94 %1011.2 hPa4.8 kmNE (40°)44.4 km/h55.5 km/hRainLight Rain
5:19 AM24 °C23 °C94 %1011.2 hPa4.8 kmNE (40°)46.3 km/h55.5 km/hRainLight Rain
5:26 AM24 °C23 °C94 %1011.2 hPa6.4 kmNE (40°)42.6 km/h55.5 km/hRainLight Rain
5:39 AM24 °C23 °C94 %1011.2 hPa6.4 kmNE (40°)42.6 km/h59.2 km/hRainLight Rain
5:49 AM24 °C23 °C94 %1011.5 hPa6.4 kmNE (40°)38.9 km/h55.5 km/hRainLight Rain
5:55 AM23.7 °C23 °C96 %1011.5 hPa6.4 kmNE (40°)44.4 km/h55.5 km/h2.79 mmRainLight Rain
6:06 AM24 °C23 °C94 %1011.5 hPa4 kmNNE (30°)40.7 km/h53.8 km/hRainHeavy Rain
6:14 AM24 °C23 °C94 %1011.9 hPa4.8 kmNE (40°)51.8 km/h59.2 km/hRainLight Rain
6:16 AM23 °C23 °C100 %1011.9 hPa6.4 kmNE (40°)44.4 km/h59.2 km/hRainLight Rain
6:18 AM23 °C23 °C100 %1011.9 hPa8 kmNE (40°)53.8 km/h62.9 km/hRainLight Rain
6:24 AM24 °C23 °C94 %1011.9 hPa11.3 kmNE (40°)51.8 km/h62.9 km/hOvercast
6:26 AM24 °C23 °C94 %1011.9 hPa11.3 kmNNE (30°)42.6 km/h62.9 km/hOvercast
6:35 AM24 °C23 °C94 %1011.9 hPa14.5 kmNE (40°)40.7 km/h51.8 km/hOvercast
6:40 AM24 °C23 °C94 %1011.9 hPa14.5 kmNE (40°)40.7 km/h53.8 km/hOvercast
6:41 AM24 °C23 °C94 %1011.9 hPa12.9 kmNE (40°)42.6 km/h53.8 km/hRainLight Rain
6:50 AM24 °C23 °C94 %1012.2 hPa8 kmNNE (30°)44.4 km/h57.5 km/hRainLight Rain
6:54 AM23 °C23 °C100 %1012.2 hPa6.4 kmNNE (30°)38.9 km/h57.5 km/hRainLight Rain
6:55 AM23.5 °C22.8 °C96 %1012.2 hPa6.4 kmNNE (30°)38.9 km/h57.5 km/h1.78 mmRainLight Rain
7:07 AM24 °C23 °C94 %1012.2 hPa6.4 kmNNE (30°)37 km/h51.8 km/hRainLight Rain
7:17 AM24 °C23 °C94 %1012.5 hPa8 kmNNE (30°)38.9 km/h57.5 km/hLight Drizzle
7:29 AM24 °C23 °C94 %1012.5 hPa4 kmNNE (30°)44.4 km/h59.2 km/hRainLight Rain
7:30 AM24 °C23 °C94 %1012.5 hPa3.2 kmNNE (30°)46.3 km/h59.2 km/hRainLight Rain
7:34 AM24 °C23 °C94 %1012.9 hPa4 kmNNE (30°)35.2 km/h59.2 km/hRainRain
7:36 AM23 °C23 °C100 %1012.9 hPa4.8 kmNNE (30°)38.9 km/h59.2 km/hRainLight Rain
7:38 AM23 °C23 °C100 %1012.5 hPa4.8 kmNNE (30°)46.3 km/h59.2 km/hRainLight Rain
7:39 AM23 °C23 °C100 %1012.9 hPa6.4 kmNNE (30°)46.3 km/h59.2 km/hRainLight Rain
7:40 AM23 °C23 °C100 %1012.9 hPa8 kmNNE (30°)42.6 km/h57.5 km/hLight Drizzle
7:44 AM23 °C23 °C100 %1012.9 hPa16.1 kmNE (40°)38.9 km/h57.5 km/hOvercast
7:55 AM23.7 °C22.7 °C94 %1012.9 hPa16.1 kmNE (40°)46.3 km/h57.5 km/h1.02 mmOvercast
8:01 AM24 °C23 °C94 %1012.9 hPa16.1 kmNNE (30°)37 km/h57.5 km/hOvercast
8:04 AM24 °C23 °C94 %1012.9 hPa12.9 kmNNE (30°)37 km/h57.5 km/hRainLight Rain
8:07 AM24 °C23 °C94 %1012.9 hPa6.4 kmNE (40°)38.9 km/h48.1 km/hRainLight Rain
8:10 AM24 °C23 °C94 %1013.2 hPa4 kmNE (40°)46.3 km/h51.8 km/hRainLight Rain
8:12 AM24 °C23 °C94 %1012.9 hPa3.2 kmNNE (30°)44.4 km/h55.5 km/hRainLight Rain
8:13 AM24 °C23 °C94 %1013.2 hPa2.9 kmNNE (30°)44.4 km/h55.5 km/hRainLight Rain
8:16 AM24 °C23 °C94 %1013.2 hPa2.9 kmNE (40°)48.1 km/h55.5 km/hRainLight Rain
8:18 AM24 °C23 °C94 %1013.2 hPa2.9 kmNE (40°)44.4 km/h55.5 km/hRainLight Rain
8:20 AM24 °C23 °C94 %1013.2 hPa3.2 kmNE (40°)44.4 km/h57.5 km/hRainLight Rain
8:22 AM24 °C23 °C94 %1013.2 hPa4 kmNE (40°)46.3 km/h57.5 km/hRainLight Rain
8:24 AM24 °C23 °C94 %1013.2 hPa4.8 kmNNE (30°)44.4 km/h57.5 km/hRainLight Rain
8:25 AM24 °C23 °C94 %1013.2 hPa6.4 kmNE (40°)44.4 km/h57.5 km/hRainLight Rain
8:30 AM24 °C23 °C94 %1013.2 hPa6.4 kmNNE (30°)42.6 km/h57.5 km/hRainLight Rain
8:41 AM24 °C23 °C94 %1013.5 hPa9.7 kmNNE (30°)35.2 km/hRainLight Rain
8:46 AM24 °C23 °C94 %1013.5 hPa4 kmNE (40°)50.1 km/h57.5 km/hRainRain
8:48 AM24 °C23 °C94 %1013.5 hPa3.2 kmNE (40°)46.3 km/h57.5 km/hRainLight Rain
8:51 AM24 °C23 °C94 %1013.5 hPa2.9 kmNE (40°)42.6 km/h57.5 km/hRainLight Rain
8:55 AM23.5 °C22.7 °C95 %1013.5 hPa2.9 kmNE (40°)48.1 km/h59.2 km/h1.27 mmRainLight Rain
8:56 AM23 °C23 °C100 %1013.5 hPa3.2 kmNE (40°)50.1 km/h59.2 km/hRainRain
8:57 AM23 °C23 °C100 %1013.5 hPa2.9 kmNE (40°)48.1 km/h59.2 km/hRainLight Rain
8:58 AM23 °C23 °C100 %1013.5 hPa3.2 kmNE (40°)44.4 km/h59.2 km/hRainLight Rain
9:03 AM23 °C22 °C94 %1013.5 hPa4 kmNE (40°)48.1 km/h59.2 km/hRainLight Rain
9:05 AM23 °C23 °C100 %1013.5 hPa4.8 kmNE (40°)46.3 km/h59.2 km/hRainLight Rain
9:11 AM24 °C23 °C94 %1013.5 hPa11.3 kmNE (40°)48.1 km/h59.2 km/hOvercast
9:12 AM24 °C23 °C94 %1013.5 hPa14.5 kmNE (40°)44.4 km/h59.2 km/hOvercast
9:14 AM24 °C23 °C94 %1013.9 hPa14.5 kmNE (40°)46.3 km/h59.2 km/hOvercast
9:18 AM23 °C22 °C94 %1013.5 hPa6.4 kmNNE (30°)38.9 km/h61.2 km/hRainLight Rain
9:20 AM23 °C23 °C100 %1013.5 hPa6.4 kmNE (40°)42.6 km/h61.2 km/hRainLight Rain
9:23 AM23 °C23 °C100 %1013.5 hPa6.4 kmNE (40°)42.6 km/h61.2 km/hRainLight Rain
9:33 AM23 °C22 °C94 %1013.5 hPa4 kmNE (40°)44.4 km/h61.2 km/hRainLight Rain
9:38 AM23 °C23 °C100 %1013.5 hPa4.8 kmNE (40°)50.1 km/h62.9 km/hRainLight Rain
9:43 AM23 °C23 °C100 %1013.5 hPa14.5 kmNE (40°)44.4 km/h68.6 km/hOvercast
9:47 AM23 °C23 °C100 %1013.5 hPa16.1 kmNNE (30°)37 km/h68.6 km/hOvercast
9:55 AM23.6 °C22.6 °C94 %1013.5 hPa14.5 kmNE (40°)42.6 km/h57.5 km/h0.51 mmOvercast
9:58 AM24 °C23 °C94 %1013.5 hPa12.9 kmNE (40°)42.6 km/h53.8 km/hOvercast
10:01 AM24 °C22 °C89 %1013.5 hPa11.3 kmNE (40°)44.4 km/h61.2 km/hRainLight Rain
10:12 AM24 °C22 °C89 %1013.5 hPa11.3 kmNE (40°)46.3 km/h62.9 km/hRainLight Rain
10:20 AM24 °C22 °C89 %1013.5 hPa11.3 kmNE (40°)42.6 km/h62.9 km/hOvercast
10:21 AM24 °C22 °C89 %1013.5 hPa12.9 kmNE (40°)42.6 km/h62.9 km/hOvercast
10:23 AM24 °C22 °C89 %1013.5 hPa9.7 kmNE (40°)48.1 km/h62.9 km/hOvercast
10:25 AM24 °C22 °C89 %1013.5 hPa4.8 kmNE (40°)44.4 km/h64.9 km/hRainHeavy Rain
10:26 AM24 °C22 °C89 %1013.5 hPa4 kmNE (40°)51.8 km/h64.9 km/hRainHeavy Rain
10:27 AM24 °C22 °C89 %1013.5 hPa4 kmNE (40°)51.8 km/h64.9 km/hRainLight Rain
10:28 AM24 °C22 °C89 %1013.5 hPa3.2 kmNE (40°)51.8 km/h64.9 km/hRainLight Rain
10:35 AM24 °C23 °C94 %1013.5 hPa4 kmNE (40°)48.1 km/h64.9 km/hRainLight Rain
10:36 AM24 °C23 °C94 %1013.5 hPa4.8 kmNE (40°)46.3 km/h62.9 km/hRainLight Rain
10:42 AM24 °C23 °C94 %1013.5 hPa6.4 kmNE (40°)37 km/h61.2 km/hOvercast
10:47 AM24 °C23 °C94 %1013.5 hPa11.3 kmNE (40°)44.4 km/h51.8 km/hOvercast
10:50 AM24 °C22 °C89 %1013.5 hPa8 kmNE (50°)51.8 km/h61.2 km/hOvercast
10:52 AM24 °C22 °C89 %1013.5 hPa6.4 kmNE (40°)50.1 km/h64.9 km/hRainLight Rain
10:53 AM24 °C22 °C89 %1013.5 hPa4.8 kmNE (40°)51.8 km/h64.9 km/hRainLight Rain
10:55 AM23.5 °C22.5 °C94 %1013.5 hPa4.8 kmNE (40°)50.1 km/h64.9 km/h0.76 mmLight Drizzle
11:12 AM23 °C22 °C94 %1013.2 hPa8 kmNNE (30°)44.4 km/h59.2 km/hRainLight Rain
11:18 AM24 °C22 °C89 %1013.2 hPa14.5 kmNE (50°)48.1 km/h55.5 km/hOvercast
11:19 AM24 °C22 °C89 %1013.2 hPa14.5 kmNE (40°)44.4 km/h55.5 km/hOvercast
11:27 AM24 °C22 °C89 %1013.2 hPa12.9 kmNNE (30°)46.3 km/h62.9 km/hOvercast
11:28 AM24 °C22 °C89 %1013.2 hPa11.3 kmNE (40°)51.8 km/h62.9 km/hLight Drizzle
11:29 AM24 °C22 °C89 %1013.2 hPa11.3 kmNE (40°)51.8 km/h62.9 km/hLight Drizzle
11:37 AM24 °C22 °C89 %1013.2 hPa11.3 kmNorthOvercast
11:54 AM24 °C22 °C89 %1012.9 hPa16.1 kmNE (40°)40.7 km/h61.2 km/hOvercast
11:55 AM23.8 °C22 °C90 %1012.9 hPa16.1 kmNE (40°)44.4 km/h61.2 km/h0 mmOvercast
11:59 AM24 °C22 °C89 %1012.9 hPa14.5 kmNE (50°)55.5 km/h61.2 km/hOvercast
12:07 PM24 °C22 °C89 %1012.9 hPa9.7 kmNE (40°)42.6 km/h62.9 km/hOvercast
12:16 PM24 °C22 °C89 %1012.5 hPa11.3 kmNE (40°)40.7 km/h61.2 km/hOvercast
12:22 PM24 °C22 °C89 %1012.5 hPa9.7 kmNE (40°)48.1 km/h59.2 km/hRainLight Rain
12:33 PM24 °C22 °C89 %1012.5 hPa11.3 kmNE (40°)42.6 km/h55.5 km/hOvercast
12:36 PM24 °C22 °C89 %1012.5 hPa11.3 kmNE (40°)46.3 km/h55.5 km/hRainLight Rain
12:37 PM24 °C21 °C83 %1012.2 hPa12.9 kmNNE (30°)46.3 km/h55.5 km/hRainLight Rain
12:38 PM24 °C21 °C83 %1012.2 hPa12.9 kmNNE (30°)46.3 km/h55.5 km/hOvercast
12:39 PM24 °C21 °C83 %1012.2 hPa12.9 kmNE (40°)46.3 km/h59.2 km/hLight Drizzle
12:41 PM24 °C21 °C83 %1012.2 hPa12.9 kmNE (40°)48.1 km/h59.2 km/hLight Drizzle
12:46 PM24 °C21 °C83 %1012.2 hPa14.5 kmNE (40°)50.1 km/h61.2 km/hOvercast
12:55 PM24.2 °C21.4 °C84 %1012.2 hPa12.9 kmNE (40°)48.1 km/h61.2 km/h0 mmOvercast
1:55 PM25 °C21.2 °C79 %1010.8 hPa16.1 kmNE (40°)44.4 km/h57.5 km/hOvercast
2:55 PM25.1 °C21.2 °C79 %1010.5 hPa16.1 kmNE (40°)46.3 km/h59.2 km/hOvercast
3:55 PM25.1 °C21.3 °C79 %1010.5 hPa16.1 kmNE (40°)44.4 km/h55.5 km/hMostly Cloudy
4:55 PM25.1 °C21.1 °C78 %1011.2 hPa16.1 kmNE (40°)40.7 km/h53.8 km/hMostly Cloudy
5:32 PM25 °C21 °C78 %1011.5 hPa16.1 kmNE (40°)44.4 km/h55.5 km/hMostly Cloudy
5:33 PM25 °C21 °C78 %1011.5 hPa16.1 kmNE (40°)42.6 km/h55.5 km/hMostly Cloudy
5:55 PM24.9 °C20.9 °C78 %1011.5 hPa16.1 kmNE (40°)46.3 km/hMostly Cloudy
6:55 PM24.2 °C21.1 °C83 %1012.2 hPa16.1 kmNE (40°)38.9 km/h53.8 km/hMostly Cloudy
7:55 PM23.9 °C21.4 °C86 %1012.9 hPa12.9 kmNE (40°)42.6 km/h51.8 km/hOvercast
8:23 PM24 °C22 °C89 %1013.2 hPa16.1 kmNE (40°)37 km/hMostly Cloudy
8:25 PM24 °C22 °C89 %1013.2 hPa16.1 kmNE (50°)38.9 km/h50.1 km/hMostly Cloudy
8:27 PM24 °C22 °C89 %1013.2 hPa16.1 kmNE (50°)40.7 km/h50.1 km/hScattered Clouds
8:29 PM24 °C22 °C89 %1013.2 hPa16.1 kmNE (40°)35.2 km/h50.1 km/hMostly Cloudy
8:36 PM24 °C21 °C83 %1013.2 hPa16.1 kmNE (40°)40.7 km/hMostly Cloudy
8:38 PM24 °C21 °C83 %1013.2 hPa16.1 kmNE (50°)37 km/hMostly Cloudy
8:55 PM24 °C21 °C83 %1013.5 hPa16.1 kmNE (40°)38.9 km/h50.1 km/hMostly Cloudy
9:55 PM24.3 °C21.1 °C82 %1013.5 hPa14.5 kmNE (50°)35.2 km/hOvercast
10:32 PM25 °C21 °C78 %1013.5 hPa16.1 kmNE (50°)37 km/h48.1 km/hMostly Cloudy
10:36 PM25 °C21 °C78 %1013.2 hPa16.1 kmNE (50°)38.9 km/hMostly Cloudy
10:55 PM24.4 °C21.1 °C82 %1013.2 hPa11.3 kmNE (50°)38.9 km/h48.1 km/hMostly Cloudy
11:24 PM24 °C21 °C83 %1012.9 hPa16.1 kmNE (50°)31.5 km/h51.8 km/hMostly Cloudy
11:26 PM24 °C21 °C83 %1012.9 hPa16.1 kmNE (50°)35.2 km/h51.8 km/hMostly Cloudy
11:55 PM24.5 °C21.1 °C81 %1012.9 hPa16.1 kmNE (50°)35.2 km/h44.4 km/hOvercast
Hourly data recorded from PGUA, located 2.59 kilometers away from Tamuning, Guam







STORIES FROM OUR PARTNERS